Wrangell, AK

10:55 AM AKDT on June 26, 2017 (GMT -0800)
Wrangell

Weather History for PAWG - July, 2014

Change the Weather History Date:

Friday, July 18, 2014

  Actual Average Record
Temperature  
Mean Temperature 58 °F -  
Max Temperature 64 °F 65 °F 75 °F (2016)
Min Temperature 53 °F 48 °F 38 °F (1969)
Degree Days  
Heating Degree Days 6    
Growing Degree Days 8 (Base 50)    
Moisture  
Dew Point 50 °F    
Average Humidity 78    
Maximum Humidity 88    
Minimum Humidity 63    
Precipitation  
Precipitation 0.49 in - - ()
Sea Level Pressure  
Sea Level Pressure 29.71 in    
Wind  
Wind Speed 5 mph (NNW)    
Max Wind Speed 13 mph    
Max Gust Speed -    
Visibility 9 miles    
Events      
Averages and records for this station are not official NWS values.
T = Trace of Precipitation, MM = Missing Value Source: NWS Daily Summary

Daily Weather History Graph

Daily Weather History Graph

Search for Another Location

Airport or City:

Trip Planner

Search our weather history database for the weather conditions in past years. The results will help you decide how hot, cold, wet, or windy it might be!

Date:

Astronomy

Jul. 18, 2014 Rise Set
Actual Time 4:26 AM AKDT 9:24 PM AKDT
Civil Twilight 3:30 AM AKDT 10:19 PM AKDT
Nautical Twilight 1:38 AM AKDT 12:06 AM AKDT
Astronomical Twilight Sun does not set Sun does not set
Moon 11:45 PM AKDT (7/18) 1:26 PM AKDT (7/18)
Length of Visible Light 18h 49m
Length of Day
16h 57m
Waning Gibbous, 53% of the Moon is Illuminated
Jul 18
Waning Gibbous
Jul 18
Last Quarter
Jul 26
New
Aug 3
First Quarter
Aug 10
Full

Hourly Weather History & Observations

Time (AKDT) Temp. Dew Point Humidity Pressure Visibility Wind Dir Wind Speed Gust Speed Precip Events Conditions
12:16 AM 53.6 °F 48.2 °F 82% 29.88 in 10.0 mi East 5.8 mph - 0.01 in   Mostly Cloudy
12:36 AM 53.6 °F 48.2 °F 82% 29.88 in 9.0 mi Calm Calm - 0.02 in   Overcast
12:56 AM 53.6 °F 48.2 °F 82% 29.86 in 8.0 mi East 3.5 mph - 0.04 in   Overcast
1:16 AM 53.6 °F 48.2 °F 82% 29.86 in 8.0 mi East 4.6 mph - 0.03 in   Mostly Cloudy
1:36 AM 53.6 °F 50.0 °F 88% 29.84 in 10.0 mi East 9.2 mph - 0.07 in   Overcast
1:56 AM 53.6 °F 48.2 °F 82% 29.83 in 10.0 mi East 9.2 mph - 0.10 in   Overcast
2:16 AM 53.6 °F 48.2 °F 82% 29.82 in 10.0 mi ESE 5.8 mph - 0.02 in   Mostly Cloudy
2:36 AM 53.6 °F 50.0 °F 88% 29.81 in 10.0 mi East 9.2 mph - 0.03 in   Mostly Cloudy
2:56 AM 53.6 °F 48.2 °F 82% 29.80 in 10.0 mi East 9.2 mph - 0.04 in   Mostly Cloudy
3:16 AM 53.6 °F 50.0 °F 88% 29.79 in 10.0 mi East 9.2 mph - 0.02 in   Mostly Cloudy
3:36 AM 55.4 °F 50.0 °F 82% 29.77 in 10.0 mi East 8.1 mph - 0.03 in   Mostly Cloudy
3:56 AM 53.6 °F 50.0 °F 88% 29.76 in 10.0 mi East 9.2 mph - 0.03 in   Mostly Cloudy
4:16 AM 53.6 °F 48.2 °F 82% 29.75 in 10.0 mi East 12.7 mph - 0.01 in   Mostly Cloudy
4:36 AM 53.6 °F 50.0 °F 88% 29.73 in 10.0 mi East 9.2 mph - 0.02 in   Overcast
4:56 AM 53.6 °F 50.0 °F 88% 29.73 in 10.0 mi East 8.1 mph - 0.02 in   Overcast
5:16 AM 53.6 °F 48.2 °F 82% 29.72 in 6.0 mi East 8.1 mph - 0.01 in   Overcast
5:36 AM 53.6 °F 48.2 °F 82% 29.71 in 9.0 mi East 6.9 mph - 0.02 in   Overcast
5:56 AM 53.6 °F 48.2 °F 82% 29.72 in 5.0 mi NNE 5.8 mph - 0.04 in   Overcast
6:16 AM 53.6 °F 48.2 °F 82% 29.71 in 5.0 mi NE 4.6 mph - 0.02 in   Overcast
6:36 AM 53.6 °F 48.2 °F 82% 29.70 in 5.0 mi Calm Calm - 0.04 in   Overcast
6:56 AM 53.6 °F 48.2 °F 82% 29.70 in 7.0 mi Calm Calm - 0.04 in   Overcast
7:16 AM 53.6 °F 48.2 °F 82% 29.70 in 7.0 mi SE 3.5 mph - 0.03 in   Overcast
7:36 AM 53.6 °F 48.2 °F 82% 29.69 in 7.0 mi NW 3.5 mph - 0.05 in   Overcast
7:56 AM 53.6 °F 48.2 °F 82% 29.69 in 7.0 mi NW 3.5 mph - 0.07 in   Overcast
8:16 AM 53.6 °F 48.2 °F 82% 29.68 in 7.0 mi Calm Calm - 0.03 in   Overcast
8:36 AM 53.6 °F 48.2 °F 82% 29.67 in 7.0 mi Calm Calm - 0.05 in   Overcast
8:56 AM 53.6 °F 48.2 °F 82% 29.67 in 10.0 mi Calm Calm - 0.06 in   Overcast
9:16 AM 53.6 °F 48.2 °F 82% 29.67 in 10.0 mi WNW 3.5 mph - N/A   Overcast
9:36 AM 55.4 °F 48.2 °F 77% 29.67 in 10.0 mi West 4.6 mph - N/A   Overcast
9:56 AM 55.4 °F 48.2 °F 77% 29.67 in 10.0 mi West 4.6 mph - N/A   Overcast
10:16 AM 55.4 °F 50.0 °F 82% 29.67 in 10.0 mi West 4.6 mph - N/A   Overcast
10:36 AM 57.2 °F 50.0 °F 77% 29.67 in 10.0 mi NNW 5.8 mph - N/A   Overcast
10:56 AM 57.2 °F 50.0 °F 77% 29.67 in 10.0 mi NNW 4.6 mph - N/A   Mostly Cloudy
11:16 AM 57.2 °F 51.8 °F 82% 29.68 in 10.0 mi Calm Calm - N/A   Mostly Cloudy
11:36 AM 57.2 °F 48.2 °F 72% 29.68 in 10.0 mi WSW 5.8 mph - N/A   Mostly Cloudy
11:56 AM 57.2 °F 48.2 °F 72% 29.69 in 10.0 mi NNW 4.6 mph - N/A   Mostly Cloudy
12:16 PM 59.0 °F 51.8 °F 77% 29.69 in 10.0 mi NNW 3.5 mph - N/A   Mostly Cloudy
12:36 PM 59.0 °F 50.0 °F 72% 29.69 in 10.0 mi NNW 4.6 mph - N/A   Mostly Cloudy
12:56 PM 60.8 °F 51.8 °F 72% 29.68 in 10.0 mi NNW 5.8 mph - N/A   Mostly Cloudy
1:16 PM 60.8 °F 51.8 °F 72% 29.68 in 10.0 mi NW 5.8 mph - N/A   Mostly Cloudy
1:36 PM 60.8 °F 51.8 °F 72% 29.68 in 10.0 mi NNW 3.5 mph - N/A   Mostly Cloudy
1:56 PM 62.6 °F 51.8 °F 68% 29.68 in 10.0 mi NNW 5.8 mph - N/A   Mostly Cloudy
2:16 PM 62.6 °F 50.0 °F 63% 29.68 in 10.0 mi Calm Calm - N/A   Mostly Cloudy
2:36 PM 62.6 °F 51.8 °F 68% 29.68 in 10.0 mi West 3.5 mph - N/A   Mostly Cloudy
2:56 PM 64.4 °F 51.8 °F 64% 29.69 in 10.0 mi West 4.6 mph - N/A   Mostly Cloudy
3:16 PM 62.6 °F 50.0 °F 63% 29.69 in 10.0 mi SW 6.9 mph - N/A   Mostly Cloudy
3:36 PM 62.6 °F 50.0 °F 63% 29.69 in 10.0 mi SSE 5.8 mph - N/A   Mostly Cloudy
3:56 PM 60.8 °F 51.8 °F 72% 29.69 in 10.0 mi ESE 4.6 mph - N/A   Mostly Cloudy
4:16 PM 62.6 °F 51.8 °F 68% 29.68 in 10.0 mi Calm Calm - N/A   Mostly Cloudy
4:36 PM 62.6 °F 53.6 °F 72% 29.68 in 10.0 mi Calm Calm - N/A   Mostly Cloudy
4:56 PM 62.6 °F 53.6 °F 72% 29.67 in 10.0 mi NNE 3.5 mph - N/A   Mostly Cloudy
5:16 PM 62.6 °F 51.8 °F 68% 29.67 in 10.0 mi Calm Calm - N/A   Mostly Cloudy
5:36 PM 60.8 °F 51.8 °F 72% 29.67 in 10.0 mi WSW 5.8 mph - N/A   Mostly Cloudy
5:56 PM 60.8 °F 50.0 °F 68% 29.67 in 10.0 mi West 8.1 mph - N/A   Mostly Cloudy
6:16 PM 60.8 °F 50.0 °F 68% 29.66 in 10.0 mi West 4.6 mph - N/A   Mostly Cloudy
6:36 PM 62.6 °F 50.0 °F 63% 29.67 in 10.0 mi West 4.6 mph - N/A   Mostly Cloudy
6:56 PM 62.6 °F 51.8 °F 68% 29.67 in 10.0 mi Calm Calm - N/A   Mostly Cloudy
7:16 PM 59.0 °F 51.8 °F 77% 29.67 in 10.0 mi NW 5.8 mph - N/A   Mostly Cloudy
7:36 PM 59.0 °F 50.0 °F 72% 29.67 in 10.0 mi West 10.4 mph - N/A   Unknown
7:56 PM 57.2 °F 51.8 °F 82% 29.67 in 10.0 mi West 6.9 mph - N/A   Overcast
8:16 PM 55.4 °F 50.0 °F 82% 29.67 in 10.0 mi NW 5.8 mph - N/A   Overcast
8:36 PM 55.4 °F 51.8 °F 88% 29.67 in 10.0 mi West 4.6 mph - N/A   Overcast
8:56 PM 57.2 °F 51.8 °F 82% 29.67 in 10.0 mi WNW 5.8 mph - N/A   Overcast
9:16 PM 57.2 °F 50.0 °F 77% 29.67 in 10.0 mi WNW 5.8 mph - N/A   Overcast
9:36 PM 55.4 °F 51.8 °F 88% 29.67 in 10.0 mi WNW 4.6 mph - N/A   Overcast
9:56 PM 55.4 °F 51.8 °F 88% 29.67 in 10.0 mi WNW 3.5 mph - N/A   Overcast
10:16 PM 55.4 °F 50.0 °F 82% 29.68 in 10.0 mi North 3.5 mph - N/A   Overcast
10:36 PM 55.4 °F 50.0 °F 82% 29.68 in 10.0 mi Calm Calm - N/A   Overcast
10:56 PM 55.4 °F 51.8 °F 88% 29.68 in 10.0 mi Calm Calm - 0.02 in   Overcast
11:16 PM 55.4 °F 50.0 °F 82% 29.68 in 4.0 mi Calm Calm - 0.01 in   Overcast
11:36 PM 55.4 °F 50.0 °F 82% 29.68 in 4.0 mi Calm Calm - 0.02 in   Overcast
11:56 PM 53.6 °F 50.0 °F 88% 29.68 in 5.0 mi Calm Calm - 0.03 in   Overcast